CZ-6A DEB, 54565

Orbit data source: Space-Track

CZ-6A DEB, 54565 is space debris in SSO originally from a launch on Fri, 11 Nov 2022 UTC launched from the Taiyaun Space Center, China (TSC). Debris objects in space refer to the collection of defunct objects orbiting the Earth. Examples of debris include non-operational satellites, rocket bodies, and fragments generated from explosions, collisions, or faulty payload assembly.

Loading next visibility...
Identifier
54565, 2022-151LR
Orbit
SSO
Country
Flag of CNCN / PRC
Related business
Manufacturer
SAST
Mission
Spacecraft
Bus & Motor
Unknown
Mass
Unknown
Launch date (UTC)
2022-11-11 (4 years ago)
Launch vehicle
Unknown
Launch site
Taiyaun Space Center, China (TSC)
Object type
Payload
Rocket body
Debris
Shape & HBR
Unknown shape, 0.1 m
Radar Cross Section
Small (<0.1 m²)

Expand to show TLE details & history
Last TLE update: 22 hours ago

TLE from 22 hours ago
0 CZ-6A DEB
1 54565U 22151LR  26144.13033674  .00007519  00000-0  12617-2 0  9991
2 54565  98.6291 208.7779 0092313  14.6483 345.7362 14.67199535186528
Epoch: 2026-05-24T03:07Z
TLE epoch observation values (Epoch: 2026-05-24T03:07:41.094Z)
Latitude
-0.00001°
Longitude
-79.88022°
Altitude
609.97 km
Speed
7.588 km/s
True Right ascension
13h 55m 06s
True Declination
0° 00' 00"
Sunlit
Object was in full shadow at epoch
Visualization orbit readout
Latitude
Unknown
Longitude
Unknown
Altitude
Unknown
Speed
Unknown
Apparent Right ascension
Unknown
Apparent Declination
Unknown
Sunlit
N/A
Visualization observer readout
Local Sidereal Time
09:57:02
Azimuth
Unknown
Elevation
Unknown
Doppler factor
Unknown
Orbital elements
Apogee altitude
732.151 km
Perigee altitude
602.077 km
Semi-major axis
7,045.251 km
Eccentricity
0.00923
Inclination
98.6291°
RAAN
208.7779°
Arg. of periapsis
14.6483°
True anomaly
345.47262°
Mean anomaly
345.7362°
Eccentric anomaly
345.60471°
Mean motion
3.67027 °/min
Orbital period
98.09 mins
BSTAR
0.0012617
Loading maneuver chart data...
Computing Atmospheric mass density...
Loading historical data...
Loading historical data...
Loading historical data...
Loading historical data...
Loading historical data...
Loading historical data...
Loading historical data...

Documentation

Showing up to 5 results
|